Location: Shell Point
(30.0571°N, 84.2896°W)
Time: 20:22:22
(UTC-04:00)

Meteor 2-19 Rocket - Visible Passes

Search period start: 26 June 2016 00:00
Search period end: 06 July 2016 00:00
Orbit: 937 x 958 km, 82.5° (Epoch: 26 June)

Date Brightness Start Highest point End Pass type
(mag) Time Alt. Az. Time Alt. Az. Time Alt. Az.
26 Jun 6.2 02:09:43 21° ENE 02:09:43 21° ENE 02:13:28 10° NE visible
26 Jun 5.1 03:53:48 40° WNW 03:53:48 40° WNW 03:59:07 10° N visible
27 Jun 5.7 02:26:46 34° ENE 02:26:46 34° ENE 02:31:17 10° NNE visible
27 Jun 5.8 04:10:51 24° WNW 04:10:51 24° WNW 04:15:26 10° NNW visible
28 Jun 5.1 02:43:48 51° NE 02:43:48 51° NE 02:48:39 10° NNE visible
28 Jun 6.3 04:27:52 14° WNW 04:27:52 14° WNW 04:30:58 10° NW visible
29 Jun 4.9 03:00:49 58° N 03:00:49 58° N 03:05:43 10° N visible
30 Jun 6.5 01:33:45 17° ENE 01:33:45 17° ENE 01:36:15 10° NE visible
30 Jun 5.2 03:17:49 42° NW 03:17:49 42° NW 03:22:30 10° N visible
01 Jul 6.0 01:50:44 26° ENE 01:50:44 26° ENE 01:54:17 10° NNE visible
01 Jul 5.8 03:34:49 27° WNW 03:34:49 27° WNW 03:38:57 10° NNW visible
02 Jul 5.5 02:07:43 39° NE 02:07:43 39° NE 02:11:47 10° NNE visible
02 Jul 6.3 03:51:47 17° WNW 03:51:47 17° WNW 03:54:51 10° NW visible
03 Jul 5.3 02:24:41 47° N 02:24:41 47° N 02:28:57 10° N visible
04 Jul 6.7 00:57:34 13° ENE 00:57:34 13° ENE 00:58:52 10° NE visible
04 Jul 5.4 02:41:38 42° NNW 02:41:38 42° NNW 02:45:50 10° N visible
05 Jul 6.3 01:14:30 21° ENE 01:14:30 21° ENE 01:17:14 10° NE visible
05 Jul 5.8 02:58:34 30° NW 02:58:34 30° NW 03:02:25 10° NNW visible
